TimeCDT,TemperatureF,Dew PointF,Humidity,Sea Level PressureIn,VisibilityMPH,Wind Direction,Wind SpeedMPH,Gust SpeedMPH,PrecipitationIn,Events,Conditions,WindDirDegrees,DateUTC
12:15 AM,41.0,37.4,87,30.05,10.0,North,9.2,-,N/A,,Clear,360,2012-10-22 05:15:00
12:55 AM,39.2,37.4,93,30.06,10.0,North,8.1,-,N/A,,Clear,360,2012-10-22 05:55:00
1:15 AM,39.2,35.6,87,30.07,10.0,North,10.4,-,N/A,,Clear,350,2012-10-22 06:15:00
1:35 AM,39.2,35.6,87,30.08,10.0,North,6.9,-,N/A,,Clear,360,2012-10-22 06:35:00
1:55 AM,39.2,35.6,87,30.08,10.0,North,8.1,-,N/A,,Clear,360,2012-10-22 06:55:00
2:15 AM,39.2,35.6,87,30.07,10.0,North,8.1,-,N/A,,Clear,10,2012-10-22 07:15:00
2:35 AM,39.2,35.6,87,30.06,10.0,NNE,6.9,-,N/A,,Scattered Clouds,30,2012-10-22 07:35:00
2:55 AM,37.4,35.6,93,30.08,10.0,NE,3.5,-,N/A,,Mostly Cloudy,40,2012-10-22 07:55:00
3:15 AM,39.2,35.6,87,30.07,10.0,North,8.1,-,N/A,,Scattered Clouds,10,2012-10-22 08:15:00
3:55 AM,37.4,35.6,93,30.08,10.0,NNE,6.9,-,N/A,,Clear,20,2012-10-22 08:55:00
4:15 AM,37.4,33.8,87,30.08,10.0,NE,4.6,-,N/A,,Clear,40,2012-10-22 09:15:00
4:35 AM,37.4,33.8,87,30.09,10.0,NE,5.8,-,N/A,,Clear,40,2012-10-22 09:35:00
4:55 AM,37.4,33.8,87,30.10,10.0,NE,5.8,-,N/A,,Clear,50,2012-10-22 09:55:00
5:15 AM,37.4,33.8,87,30.10,10.0,NE,6.9,-,N/A,,Clear,50,2012-10-22 10:15:00
5:35 AM,37.4,35.6,93,30.10,10.0,NE,6.9,-,N/A,,Clear,50,2012-10-22 10:35:00
5:55 AM,37.4,33.8,87,30.11,10.0,NE,5.8,-,N/A,,Clear,40,2012-10-22 10:55:00
6:15 AM,37.4,33.8,87,30.11,10.0,ENE,5.8,-,N/A,,Clear,60,2012-10-22 11:15:00
6:35 AM,37.4,33.8,87,30.12,10.0,NNE,6.9,-,N/A,,Mostly Cloudy,30,2012-10-22 11:35:00
6:55 AM,37.4,33.8,87,30.12,10.0,NE,5.8,-,N/A,,Mostly Cloudy,50,2012-10-22 11:55:00
7:15 AM,37.4,33.8,87,30.10,10.0,ENE,8.1,-,N/A,,Scattered Clouds,60,2012-10-22 12:15:00
7:35 AM,37.4,33.8,87,30.10,10.0,ENE,8.1,-,N/A,,Clear,60,2012-10-22 12:35:00
7:55 AM,37.4,33.8,87,30.10,10.0,ENE,6.9,-,N/A,,Partly Cloudy,60,2012-10-22 12:55:00
8:15 AM,37.4,33.8,87,30.11,10.0,NE,5.8,-,N/A,,Mostly Cloudy,50,2012-10-22 13:15:00
8:35 AM,37.4,33.8,87,30.10,10.0,NE,8.1,-,N/A,,Overcast,50,2012-10-22 13:35:00
8:55 AM,37.4,33.8,87,30.12,10.0,NE,5.8,-,N/A,,Overcast,50,2012-10-22 13:55:00
9:15 AM,37.4,35.6,93,30.12,10.0,NNE,8.1,-,N/A,,Overcast,30,2012-10-22 14:15:00
9:35 AM,39.2,35.6,87,30.11,10.0,NNE,8.1,-,N/A,,Overcast,30,2012-10-22 14:35:00
9:55 AM,39.2,37.4,93,30.11,10.0,NE,8.1,-,N/A,,Overcast,50,2012-10-22 14:55:00
10:15 AM,41.0,37.4,87,30.12,10.0,NNE,9.2,-,N/A,,Overcast,30,2012-10-22 15:15:00
10:35 AM,39.2,37.4,93,30.10,10.0,NE,12.7,-,N/A,,Overcast,50,2012-10-22 15:35:00
10:55 AM,41.0,37.4,87,30.10,10.0,NE,9.2,-,N/A,,Overcast,50,2012-10-22 15:55:00
11:15 AM,41.0,37.4,87,30.10,10.0,NE,10.4,-,N/A,,Overcast,50,2012-10-22 16:15:00
11:35 AM,42.8,39.2,87,30.10,10.0,NE,11.5,-,N/A,,Overcast,40,2012-10-22 16:35:00
11:55 AM,42.8,39.2,87,30.09,10.0,NE,13.8,-,N/A,,Overcast,40,2012-10-22 16:55:00
12:15 PM,42.8,39.2,87,30.09,10.0,ENE,12.7,-,N/A,,Overcast,60,2012-10-22 17:15:00
12:35 PM,42.8,39.2,87,30.08,10.0,ENE,11.5,-,N/A,,Overcast,60,2012-10-22 17:35:00
12:55 PM,44.6,41.0,87,30.09,10.0,NE,9.2,-,N/A,,Overcast,50,2012-10-22 17:55:00
1:15 PM,44.6,39.2,81,30.09,10.0,NE,8.1,-,N/A,,Overcast,40,2012-10-22 18:15:00
1:35 PM,44.6,41.0,87,30.08,10.0,NNE,10.4,-,N/A,,Overcast,30,2012-10-22 18:35:00
1:55 PM,44.6,41.0,87,30.07,10.0,NNE,12.7,-,N/A,,Overcast,30,2012-10-22 18:55:00
2:15 PM,44.6,41.0,87,30.06,10.0,NNE,12.7,-,N/A,,Overcast,30,2012-10-22 19:15:00
2:35 PM,46.4,41.0,81,30.05,10.0,NNE,12.7,-,N/A,,Overcast,30,2012-10-22 19:35:00
2:55 PM,46.4,41.0,81,30.04,10.0,NE,13.8,-,N/A,,Overcast,50,2012-10-22 19:55:00
3:15 PM,46.4,41.0,81,30.04,10.0,NE,13.8,-,N/A,,Overcast,50,2012-10-22 20:15:00
3:35 PM,46.4,42.8,87,30.04,10.0,NE,13.8,-,N/A,,Overcast,40,2012-10-22 20:35:00
3:55 PM,46.4,41.0,81,30.04,10.0,NE,13.8,-,N/A,,Overcast,40,2012-10-22 20:55:00
4:15 PM,46.4,42.8,87,30.03,10.0,NE,13.8,-,N/A,,Overcast,40,2012-10-22 21:15:00
4:35 PM,46.4,41.0,81,30.02,10.0,NE,11.5,-,N/A,,Mostly Cloudy,40,2012-10-22 21:35:00
4:55 PM,46.4,41.0,81,30.02,10.0,NE,13.8,-,N/A,,Partly Cloudy,50,2012-10-22 21:55:00
5:15 PM,46.4,41.0,81,30.02,10.0,NE,12.7,-,N/A,,Scattered Clouds,40,2012-10-22 22:15:00
5:35 PM,46.4,41.0,81,30.01,10.0,NE,13.8,-,N/A,,Mostly Cloudy,50,2012-10-22 22:35:00
5:55 PM,46.4,39.2,76,30.00,10.0,NE,13.8,19.6,N/A,,Clear,50,2012-10-22 22:55:00
6:15 PM,46.4,41.0,81,30.00,10.0,NE,15.0,18.4,N/A,,Mostly Cloudy,50,2012-10-22 23:15:00
6:35 PM,46.4,41.0,81,30.00,10.0,NE,12.7,-,N/A,,Mostly Cloudy,50,2012-10-22 23:35:00
6:55 PM,44.6,41.0,87,30.01,10.0,NE,13.8,18.4,N/A,,Mostly Cloudy,50,2012-10-22 23:55:00
7:15 PM,44.6,41.0,87,30.00,10.0,NE,16.1,-,N/A,,Scattered Clouds,50,2012-10-23 00:15:00
7:35 PM,44.6,41.0,87,30.00,10.0,NE,11.5,-,N/A,,Partly Cloudy,50,2012-10-23 00:35:00
7:55 PM,44.6,39.2,81,30.00,10.0,NE,12.7,-,N/A,,Scattered Clouds,50,2012-10-23 00:55:00
8:15 PM,44.6,39.2,81,29.99,10.0,NE,12.7,-,N/A,,Scattered Clouds,50,2012-10-23 01:15:00
8:55 PM,44.6,39.2,81,29.99,10.0,ENE,15.0,-,N/A,,Mostly Cloudy,60,2012-10-23 01:55:00
9:15 PM,44.6,39.2,81,29.98,10.0,ENE,13.8,-,N/A,,Mostly Cloudy,60,2012-10-23 02:15:00
9:35 PM,44.6,37.4,76,29.98,10.0,ENE,12.7,-,N/A,,Mostly Cloudy,60,2012-10-23 02:35:00
9:55 PM,44.6,37.4,76,29.97,10.0,ENE,16.1,20.7,N/A,,Mostly Cloudy,60,2012-10-23 02:55:00
10:15 PM,44.6,37.4,76,29.97,10.0,ENE,15.0,19.6,N/A,,Mostly Cloudy,60,2012-10-23 03:15:00
10:35 PM,44.6,37.4,76,29.95,10.0,ENE,15.0,20.7,N/A,,Overcast,60,2012-10-23 03:35:00
10:55 PM,44.6,37.4,76,29.96,10.0,ENE,13.8,-,N/A,,Overcast,60,2012-10-23 03:55:00
11:15 PM,44.6,37.4,76,29.94,10.0,ENE,13.8,18.4,N/A,,Overcast,70,2012-10-23 04:15:00
11:35 PM,46.4,37.4,71,29.93,10.0,ENE,13.8,-,N/A,,Overcast,70,2012-10-23 04:35:00